When you browse on this site, cookies collect data to enhance your experience and personalize the content and advertising you see.
Visit our Privacy Policy to learn more. By continuing to use the site, you agree to this use of cookies and data.
  • In Romania
  • List of Countries
  • For 7 days
  • Water Temperature
  • Satellite Maps
  • Weather Map
  • Weather Widgets
  • user-avatar
    Login

    Hourly Weather Szentendre

    Today, 23 January, Wednesday

    Time Temperature Precipitation Wind Pressure Humidity
    00:00 -5°C° 0 mm 2 mps 742 mmHg 82%
    01:00 -5°C° 0 mm 2 mps 741 mmHg 84%
    02:00 -5°C° 0 mm 2 mps 741 mmHg 84%
    03:00 -5°C° 0 mm 2 mps 740 mmHg 84%
    04:00 -3°C° 0 mm 1 mps 739 mmHg 84%
    05:00 -3°C° 0.2 mm 1 mps 739 mmHg 86%
    06:00 -3°C° 0.2 mm 1 mps 739 mmHg 87%
    07:00 -3°C° 0.2 mm 1 mps 738 mmHg 89%
    08:00 -2°C° 0.3 mm 1 mps 738 mmHg 89%
    09:00 -4°C° 0.3 mm 2 mps 738 mmHg 89%
    10:00 -4°C° 0.3 mm 2 mps 738 mmHg 89%
    11:00 -3°C° 0.2 mm 2 mps 738 mmHg 88%
    12:00 -3°C° 0.2 mm 2 mps 738 mmHg 87%
    13:00 -2°C° 0.2 mm 2 mps 738 mmHg 87%
    14:00 -2°C° 0 mm 2 mps 738 mmHg 88%
    15:00 -2°C° 0 mm 2 mps 737 mmHg 88%
    16:00 -2°C° 0 mm 2 mps 737 mmHg 89%
    17:00 -3°C° 0 mm 2 mps 737 mmHg 90%
    18:00 -1°C° 0 mm 1 mps 737 mmHg 91%
    19:00 -1°C° 0 mm 1 mps 737 mmHg 91%
    20:00 -1°C° 0 mm 1 mps 737 mmHg 91%
    21:00 -1°C° 0 mm 1 mps 738 mmHg 91%
    22:00 -1°C° 0 mm 1 mps 738 mmHg 91%
    23:00 -1°C° 0 mm 1 mps 738 mmHg 90%

    Tomorrow, 24 January, Thursday

    Time Temperature Precipitation Wind Pressure Humidity
    00:00 -1°C° 0 mm 1 mps 738 mmHg 90%
    01:00 -1°C° 0 mm 1 mps 738 mmHg 90%
    02:00 -1°C° 0 mm 1 mps 738 mmHg 90%
    03:00 -1°C° 0 mm 1 mps 737 mmHg 91%
    04:00 -4°C° 0 mm 2 mps 737 mmHg 91%
    05:00 -4°C° 0 mm 2 mps 737 mmHg 89%
    06:00 -4°C° 0 mm 2 mps 737 mmHg 87%
    07:00 -4°C° 0 mm 2 mps 738 mmHg 86%
    08:00 -3°C° 0 mm 2 mps 738 mmHg 82%
    09:00 -2°C° 0 mm 2 mps 738 mmHg 78%
    10:00 -1°C° 0 mm 3 mps 738 mmHg 75%
    11:00 -1°C° 0 mm 3 mps 737 mmHg 73%
    12:00 0°C° 0 mm 3 mps 737 mmHg 71%
    13:00 +1°C° 0 mm 3 mps 737 mmHg 69%
    14:00 0°C° 0 mm 3 mps 737 mmHg 71%
    15:00 0°C° 0 mm 3 mps 737 mmHg 72%
    16:00 +1°C° 0 mm 2 mps 737 mmHg 74%
    17:00 -1°C° 0 mm 2 mps 737 mmHg 76%
    18:00 -1°C° 0 mm 2 mps 737 mmHg 77%
    19:00 -1°C° 0 mm 2 mps 737 mmHg 79%
    20:00 -2°C° 0 mm 2 mps 738 mmHg 80%
    21:00 -2°C° 0 mm 2 mps 738 mmHg 81%
    22:00 -2°C° 0 mm 2 mps 738 mmHg 82%
    23:00 -2°C° 0 mm 3 mps 738 mmHg 82%

    Day after tomorrow, 25 January, Friday

    Time Temperature Precipitation Wind Pressure Humidity
    00:00 -2°C° 0 mm 3 mps 738 mmHg 81%
    01:00 -4°C° 0 mm 3 mps 738 mmHg 81%
    02:00 -4°C° 0 mm 3 mps 738 mmHg 80%
    03:00 -4°C° 0 mm 3 mps 737 mmHg 79%
    04:00 -4°C° 0 mm 3 mps 737 mmHg 78%
    05:00 -4°C° 0.1 mm 3 mps 738 mmHg 80%
    06:00 -4°C° 0.1 mm 3 mps 738 mmHg 82%
    07:00 -4°C° 0.1 mm 3 mps 738 mmHg 84%
    08:00 -4°C° 0.1 mm 3 mps 738 mmHg 82%
    09:00 -4°C° 0.1 mm 3 mps 739 mmHg 80%
    10:00 -2°C° 0.1 mm 3 mps 739 mmHg 79%
    11:00 -2°C° 0.1 mm 3 mps 739 mmHg 78%
    12:00 -3°C° 0.1 mm 4 mps 739 mmHg 78%
    13:00 -3°C° 0.1 mm 4 mps 739 mmHg 78%
    14:00 -3°C° 0 mm 4 mps 739 mmHg 78%
    15:00 -3°C° 0 mm 4 mps 739 mmHg 77%
    16:00 -3°C° 0 mm 4 mps 739 mmHg 77%
    17:00 -3°C° 0.1 mm 4 mps 740 mmHg 78%
    18:00 -3°C° 0.1 mm 4 mps 740 mmHg 78%
    19:00 -3°C° 0.1 mm 4 mps 741 mmHg 79%
    20:00 -3°C° 0.2 mm 4 mps 741 mmHg 81%
    21:00 -4°C° 0.2 mm 4 mps 741 mmHg 82%
    22:00 -4°C° 0.2 mm 4 mps 741 mmHg 84%
    23:00 -4°C° 0.4 mm 4 mps 741 mmHg 85%

    26 January, Saturday

    Time Temperature Precipitation Wind Pressure Humidity
    00:00 -4°C° 0.4 mm 4 mps 742 mmHg 86%
    01:00 -4°C° 0.4 mm 4 mps 742 mmHg 87%
    02:00 -5°C° 0.2 mm 5 mps 742 mmHg 85%
    03:00 -5°C° 0.2 mm 5 mps 742 mmHg 83%
    04:00 -6°C° 0.2 mm 5 mps 742 mmHg 80%
    05:00 -6°C° 0 mm 5 mps 742 mmHg 79%
    06:00 -6°C° 0 mm 5 mps 742 mmHg 78%
    07:00 -6°C° 0 mm 5 mps 742 mmHg 77%
    08:00 -6°C° 0 mm 5 mps 742 mmHg 76%
    09:00 -5°C° 0 mm 5 mps 743 mmHg 75%
    10:00 -5°C° 0 mm 5 mps 743 mmHg 75%
    11:00 -5°C° 0 mm 5 mps 742 mmHg 74%
    12:00 -4°C° 0 mm 5 mps 742 mmHg 73%
    13:00 -2°C° 0 mm 4 mps 742 mmHg 72%
    14:00 -2°C° 0 mm 4 mps 742 mmHg 73%
    15:00 -2°C° 0 mm 3 mps 741 mmHg 75%
    16:00 -2°C° 0 mm 3 mps 741 mmHg 76%
    17:00 -4°C° 0 mm 3 mps 741 mmHg 78%
    18:00 -3°C° 0 mm 2 mps 741 mmHg 81%
    19:00 -4°C° 0 mm 2 mps 741 mmHg 83%
    20:00 -4°C° 0 mm 2 mps 741 mmHg 84%
    21:00 -2°C° 0 mm 1 mps 741 mmHg 85%
    22:00 -2°C° 0 mm 1 mps 741 mmHg 86%
    23:00 -2°C° 0 mm 1 mps 740 mmHg 86%

    27 January, Sunday

    Time Temperature Precipitation Wind Pressure Humidity
    00:00 -2°C° 0 mm 1 mps 740 mmHg 86%
    01:00 -2°C° 0 mm 1 mps 740 mmHg 86%
    02:00 -3°C° 0 mm 0 mps 740 mmHg 86%
    03:00 -3°C° 0 mm 0 mps 739 mmHg 87%
    04:00 -4°C° 0 mm 0 mps 739 mmHg 87%
    05:00 -3°C° 0 mm 0 mps 739 mmHg 87%
    06:00 -3°C° 0 mm 0 mps 739 mmHg 87%
    07:00 -3°C° 0 mm 0 mps 739 mmHg 87%
    08:00 -1°C° 0 mm 1 mps 739 mmHg 86%
    09:00 -1°C° 0 mm 1 mps 739 mmHg 85%
    10:00 0°C° 0 mm 1 mps 739 mmHg 84%
    11:00 0°C° 0 mm 1 mps 739 mmHg 85%
    12:00 +1°C° 0 mm 1 mps 739 mmHg 86%
    13:00 +1°C° 0 mm 1 mps 739 mmHg 87%
    14:00 +1°C° 0 mm 1 mps 739 mmHg 89%
    15:00 +1°C° 0 mm 1 mps 739 mmHg 90%
    16:00 +1°C° 0 mm 1 mps 739 mmHg 92%
    17:00 0°C° 0 mm 1 mps 740 mmHg 93%
    18:00 0°C° 0 mm 1 mps 740 mmHg 95%
    19:00 0°C° 0 mm 1 mps 740 mmHg 96%
    20:00 0°C° 0.1 mm 1 mps 740 mmHg 96%
    21:00 0°C° 0.1 mm 1 mps 740 mmHg 96%
    22:00 0°C° 0.1 mm 1 mps 741 mmHg 96%
    23:00 0°C° 0.1 mm 1 mps 741 mmHg 96%

    28 January, Monday

    Time Temperature Precipitation Wind Pressure Humidity
    00:00 0°C° 0.1 mm 1 mps 741 mmHg 96%
    01:00 0°C° 0.1 mm 1 mps 741 mmHg 96%
    02:00 0°C° 0.1 mm 1 mps 741 mmHg 96%
    03:00 0°C° 0.1 mm 1 mps 741 mmHg 96%
    04:00 0°C° 0.1 mm 1 mps 741 mmHg 95%
    05:00 0°C° 0 mm 1 mps 741 mmHg 95%
    06:00 0°C° 0 mm 1 mps 741 mmHg 95%
    07:00 0°C° 0 mm 1 mps 742 mmHg 95%
    08:00 0°C° 0 mm 1 mps 742 mmHg 93%
    09:00 -1°C° 0 mm 2 mps 742 mmHg 92%
    10:00 -1°C° 0 mm 2 mps 743 mmHg 90%
    11:00 +1°C° 0 mm 2 mps 743 mmHg 90%
    12:00 0°C° 0 mm 3 mps 742 mmHg 89%
    13:00 +1°C° 0 mm 3 mps 742 mmHg 88%
    14:00 +2°C° 0 mm 2 mps 743 mmHg 89%
    15:00 +1°C° 0 mm 2 mps 743 mmHg 91%
    16:00 +2°C° 0 mm 1 mps 743 mmHg 92%
    17:00 +2°C° 0 mm 1 mps 743 mmHg 93%
    18:00 +1°C° 0 mm 1 mps 744 mmHg 94%
    19:00 +1°C° 0 mm 1 mps 744 mmHg 94%
    20:00 +1°C° 0 mm 1 mps 745 mmHg 95%
    21:00 0°C° 0 mm 1 mps 745 mmHg 95%
    22:00 0°C° 0 mm 1 mps 745 mmHg 95%
    23:00 0°C° 0 mm 1 mps 745 mmHg 95%
    Show more